Location: *
(43.4667°N, 11.6833°E)
Time: 07:13:33
(UTC+00:00)

CARTOSAT-1 - Pass Details

Date: 19 July 2019
Orbit: 617 x 619 km, 97.9° (Epoch: 25 August)

Event Time Altitude Azimuth Distance (km) Brightness Sun altitude
Exits shadow 21:05:58 36° 183° (S) 984 4.2 -18.8°
Maximum altitude 21:07:39 72° 258° (WSW) 655 3.6 -19.0°
Drops below altitude 10° 21:11:59 10° 343° (NNW) 1,992 7.3 -19.4°
Sets 21:14:11 0° 346° (NNW) 2,902 8.4 -19.6°
